| time (UTC) | temp F | wind direction | speed MPH | gust MPH | rain 1hr in | rain 24hr in | rain mn in | humidity % | barometer mb |
| 20260505090106 | 62 | 96 | 2.0 | 11.0 | 0.00 | 0.00 | 0.00 | 70 | 1009.7 |
| 20260505084533 | 63 | 240 | 1.0 | 5.0 | 0.00 | 0.00 | 0.00 | 68 | 1009.6 |
| 20260505083031 | 64 | 134 | 1.0 | 7.0 | 0.00 | 0.00 | 0.00 | 67 | 1009.6 |
| 20260505081532 | 65 | 40 | 1.0 | 5.0 | 0.00 | 0.00 | 0.00 | 66 | 1009.5 |
| 20260505080104 | 65 | 243 | 0.0 | 3.0 | 0.00 | 0.00 | 0.00 | 66 | 1009.5 |
| 20260505074607 | 65 | 232 | 2.0 | 10.0 | 0.00 | 0.00 | 0.00 | 67 | 1009.4 |
| 20260505073106 | 64 | 255 | 2.0 | 13.0 | 0.00 | 0.00 | 0.00 | 69 | 1009.3 |
| 20260505071533 | 62 | 173 | 2.0 | 6.0 | 0.00 | 0.00 | 0.00 | 70 | 1009.2 |
| 20260505064605 | 64 | 121 | 0.0 | 4.0 | 0.00 | 0.00 | 0.00 | 64 | 1009.1 |
| 20260505063029 | 66 | 126 | 1.0 | 4.0 | 0.00 | 0.00 | 0.00 | 61 | 1008.9 |
| 20260505061534 | 67 | 192 | 0.0 | 5.0 | 0.00 | 0.00 | 0.00 | 59 | 1008.8 |
| 20260505060030 | 68 | 252 | 2.0 | 7.0 | 0.00 | 0.00 | 0.00 | 58 | 1008.7 |
| 20260505054532 | 68 | 259 | 2.0 | 6.0 | 0.00 | 0.00 | 0.00 | 57 | 1008.6 |
| 20260505053032 | 68 | 253 | 3.0 | 7.0 | 0.00 | 0.00 | 0.00 | 57 | 1008.4 |
| 20260505051609 | 68 | 247 | 2.0 | 7.0 | 0.00 | 0.00 | 0.00 | 56 | 1008.4 |
| 20260505041531 | 69 | 234 | 2.0 | 8.0 | 0.00 | 0.00 | 0.00 | 53 | 1007.9 |
| 20260505040046 | 69 | 223 | 2.0 | 6.0 | 0.00 | 0.00 | 0.00 | 52 | 1007.6 |
| 20260505034533 | 71 | 239 | 2.0 | 6.0 | 0.00 | 0.00 | 0.00 | 51 | 1007.4 |
| 20260505033033 | 71 | 227 | 3.0 | 10.0 | 0.00 | 0.00 | 0.00 | 50 | 1007.2 |
| 20260505031529 | 71 | 232 | 4.0 | 10.0 | 0.00 | 0.00 | 0.00 | 50 | 1007.1 |
| 20260505030032 | 73 | 251 | 2.0 | 7.0 | 0.00 | 0.00 | 0.00 | 47 | 1006.9 |
| 20260505024540 | 75 | 241 | 4.0 | 16.0 | 0.00 | 0.00 | 0.00 | 45 | 1006.7 |
| 20260505023030 | 76 | 234 | 6.0 | 13.0 | 0.00 | 0.00 | 0.00 | 44 | 1006.6 |
| 20260505021531 | 78 | 236 | 5.0 | 10.0 | 0.00 | 0.00 | 0.00 | 43 | 1006.6 |
| 20260505020033 | 80 | 271 | 3.0 | 11.0 | 0.00 | 0.00 | 0.00 | 41 | 1006.6 |
| 20260505014607 | 81 | 254 | 4.0 | 13.0 | 0.00 | 0.00 | 0.00 | 40 | 1006.5 |
| 20260505013031 | 82 | 250 | 5.0 | 15.0 | 0.00 | 0.00 | 0.00 | 39 | 1006.4 |
| 20260505011530 | 82 | 256 | 8.0 | 20.0 | 0.00 | 0.00 | 0.00 | 38 | 1006.4 |
| 20260505010144 | 82 | 260 | 6.0 | 13.0 | 0.00 | 0.00 | 0.00 | 39 | 1006.3 |
| 20260505004529 | 83 | 240 | 6.0 | 18.0 | 0.00 | 0.00 | 0.00 | 38 | 1006.3 |
| 20260505003032 | 83 | 260 | 6.0 | 17.0 | 0.00 | 0.00 | 0.00 | 38 | 1006.4 |
| 20260505000031 | 82 | 266 | 5.0 | 10.0 | 0.00 | 0.00 | 0.00 | 40 | 1006.5 |
| 20260504231607 | 83 | 289 | 6.0 | 14.0 | 0.00 | 0.00 | 0.00 | 40 | 1006.6 |
| 20260504230031 | 83 | 269 | 7.0 | 17.0 | 0.00 | 0.00 | 0.00 | 39 | 1006.8 |
| 20260504223102 | 83 | 296 | 5.0 | 14.0 | 0.00 | 0.00 | 0.00 | 39 | 1007.1 |
| 20260504221531 | 83 | 253 | 4.0 | 13.0 | 0.00 | 0.00 | 0.00 | 39 | 1007.3 |
| 20260504220031 | 83 | 273 | 3.0 | 9.0 | 0.00 | 0.00 | 0.00 | 39 | 1007.3 |
| 20260504214530 | 84 | 294 | 6.0 | 12.0 | 0.00 | 0.00 | 0.00 | 37 | 1007.6 |
| 20260504213030 | 86 | 279 | 4.0 | 12.0 | 0.00 | 0.00 | 0.00 | 36 | 1007.7 |
| 20260504211533 | 88 | 268 | 4.0 | 14.0 | 0.00 | 0.00 | 0.00 | 33 | 1007.8 |
| 20260504210031 | 89 | 280 | 3.0 | 8.0 | 0.00 | 0.00 | 0.00 | 35 | 1008.0 |
| 20260504204530 | 87 | 328 | 3.0 | 10.0 | 0.00 | 0.00 | 0.00 | 34 | 1008.1 |
| 20260504203108 | 87 | 282 | 5.0 | 12.0 | 0.00 | 0.00 | 0.00 | 34 | 1008.2 |
| 20260504201607 | 86 | 269 | 3.0 | 8.0 | 0.00 | 0.00 | 0.00 | 35 | 1008.4 |
| 20260504200031 | 86 | 287 | 5.0 | 14.0 | 0.00 | 0.00 | 0.00 | 35 | 1008.5 |
| 20260504194530 | 85 | 289 | 3.0 | 10.0 | 0.00 | 0.00 | 0.00 | 36 | 1008.5 |
| 20260504191529 | 84 | 295 | 5.0 | 12.0 | 0.00 | 0.00 | 0.00 | 36 | 1008.8 |
| 20260504190033 | 84 | 279 | 3.0 | 11.0 | 0.00 | 0.00 | 0.00 | 37 | 1008.8 |
| 20260504184531 | 82 | 319 | 3.0 | 11.0 | 0.00 | 0.00 | 0.00 | 39 | 1008.9 |
| 20260504183031 | 81 | 312 | 5.0 | 14.0 | 0.00 | 0.00 | 0.00 | 39 | 1008.9 |
| 20260504181529 | 82 | 303 | 6.0 | 16.0 | 0.00 | 0.00 | 0.00 | 39 | 1009.0 |
| 20260504180030 | 82 | 294 | 2.0 | 7.0 | 0.00 | 0.00 | 0.00 | 42 | 1009.0 |
| 20260504174530 | 80 | 145 | 1.0 | 10.0 | 0.00 | 0.00 | 0.00 | 48 | 1008.9 |
| 20260504173029 | 79 | 173 | 3.0 | 7.0 | 0.00 | 0.00 | 0.00 | 49 | 1009.0 |
| 20260504171529 | 78 | 41 | 2.0 | 6.0 | 0.00 | 0.00 | 0.00 | 49 | 1009.2 |
| 20260504170108 | 76 | 44 | 0.0 | 3.0 | 0.00 | 0.00 | 0.00 | 52 | 1009.3 |
| 20260504120107 | 47 | 330 | 0.0 | 3.0 | 0.00 | 0.00 | 0.00 | 92 | 1009.0 |